Powrót do katalogu

STARLINK-32580

AktywnyŁącznośćVLEO
NORAD 62075·PAYLOAD·🇺🇸 United States

Wystrzelony Nov 24, 2024 z Vandenberg Space Force Base

Loading…

Następne Przeloty (najbliższe 24 godziny)

TLE

ŚwieżeSource: CelesTrak SupGP

Epoka: Sep 14, 2026, 20:34 UTC

1 62075C 24217U   26257.85743056  .00043266  00000+0  12789-2 0  2572
2 62075  53.1608  21.9775 0001269  80.5154 165.1273 15.34353963    15

Śledź STARLINK-32580 w czasie rzeczywistym z AllMySat

Download on the App Store